Regional Weather Roundup
Issued by NWS

Home | Current Version | Previous Version | Graphics & Text | Print | Product List | Glossary On
Versions: 1 2 3 4 5 6 7 8 9 10 11 12 13 14 15 16 17 18 19 20 21 22 23 24 25 26 27
000
ASUS45 KCYS 280010
RWRWY

WYOMING REGIONAL WEATHER ROUNDUP
NATIONAL WEATHER SERVICE CHEYENNE WY
600 PM MDT FRI MAY 27 2016

NOTE:  "FAIR" INDICATES FEW OR NO CLOUDS BELOW 12,000 FEET
WITH NO SIGNIFICANT WEATHER AND/OR OBSTRUCTIONS TO VISIBILITY.

WYZ001-280100-
YELLOWSTONE NATIONAL PARK

CITY           SKY/WX    TMP DP  RH WIND       PRES   REMARKS
LK YELLOWSTONE   N/A     46  33  60 W16G29    30.01R
6HR MIN TEMP:  41; 6HR MAX TEMP:  54;

W YELLOWSTONE  NOT AVBL

$$
WYZ002>013-054>058-071-098>099-280100-
NORTHERN WYOMING

CITY           SKY/WX    TMP DP  RH WIND       PRES   REMARKS
JACKSON        PTSUNNY   55  30  38 W13G23    29.92
CODY           PTSUNNY   59  46  63 NE9       29.83S
GREYBULL       FAIR      71  37  28 SW8       29.76F
6HR MIN TEMP:  63; 6HR MAX TEMP:  73;

WORLAND        FAIR      69  36  29 CALM      29.77F
6HR MIN TEMP:  64; 6HR MAX TEMP:  71;

SHERIDAN       FAIR      63  49  60 S8        29.82F
6HR MIN TEMP:  63; 6HR MAX TEMP:  69;

BUFFALO        CLOUDY    54  43  66 W15       29.89S
6HR MIN TEMP:  53; 6HR MAX TEMP:  64; 6HR PCP:  0.04;

GILLETTE       FAIR      67  42  40 NE8       29.84F
6HR MIN TEMP:  60; 6HR MAX TEMP:  67;

HULETT         MOCLDY    61  43  51 N5        29.86S
NEWCASTLE      FAIR      61  41  48 SE18      29.85S

$$
WYZ014>020-022>026-101>103-280100-
CENTRAL WYOMING

CITY           SKY/WX    TMP DP  RH WIND       PRES   REMARKS
BIG PINEY      CLOUDY    53  36  52 W7        29.97R
6HR MIN TEMP:  50; 6HR MAX TEMP:  60; 6HR PCP:  0.05;

PINEDALE       MOCLDY    50  37  62 N7        29.98F
DUBOIS         FAIR      55  28  35 MISG      29.93R
LANDER         CLOUDY    64  36  35 SE3       29.81S
6HR MIN TEMP:  60; 6HR MAX TEMP:  69;

RIVERTON       FAIR      65  33  30 NE6       29.84R
6HR MIN TEMP:  61; 6HR MAX TEMP:  70;

CASPER         CLOUDY    64  34  32 E3        29.85F
6HR MIN TEMP:  56; 6HR MAX TEMP:  67; 6HR PCP:  0.01;

DOUGLAS          N/A    N/A N/A N/A MISG      29.86R

$$
WYZ021-027>030-104>119-280100-
SOUTHERN WYOMING

CITY           SKY/WX    TMP DP  RH WIND       PRES   REMARKS
EVANSTON       PTSUNNY   54  35  48 N15       29.99S
6HR MIN TEMP:  47; 6HR MAX TEMP:  57;

KEMMERER         N/A     46  37  71 S5        30.02S
FORT BRIDGER   RAIN      52  43  71 NW3G17    30.03R
ROCK SPRINGS   FAIR      58  35  42 SW17      29.93S
6HR MIN TEMP:  51; 6HR MAX TEMP:  62; 6HR PCP: TRACE;

DIXON          LGT RAIN  53  34  47 SW7       29.99R
RAWLINS        CLOUDY    59  28  30 NW7       29.93R
6HR MIN TEMP:  56; 6HR MAX TEMP:  63;

SARATOGA       CLOUDY    48  36  61 W17G24    29.98R
LARAMIE        FAIR      53  34  48 NE5       29.93S
6HR MIN TEMP:  50; 6HR MAX TEMP:  58; 6HR PCP: TRACE;

CHEYENNE       FAIR      53  41  63 NE7       29.92R
6HR MIN TEMP:  52; 6HR MAX TEMP:  59;

TORRINGTON     FAIR      54  51  90 SE5       29.86F
6HR MIN TEMP:  51; 6HR MAX TEMP:  66; 6HR PCP:  0.43;

PINE BLUFFS    FAIR      54  41  62 NE8       29.90S

$$




USA.gov is the U.S. government's official web portal to all federal, state and local government web resources and services.